TimeMDT,TemperatureF,Dew PointF,Humidity,Sea Level PressureIn,VisibilityMPH,Wind Direction,Wind SpeedMPH,Gust SpeedMPH,PrecipitationIn,Events,Conditions,WindDirDegrees,DateUTC
1:53 AM,46.9,37.0,68,30.04,10.0,SE,5.8,-,N/A,,Overcast,140,2013-05-21 07:53:00
2:53 AM,46.0,37.9,73,30.02,10.0,SE,6.9,-,N/A,,Overcast,140,2013-05-21 08:53:00
3:53 AM,44.1,37.0,76,30.02,10.0,ESE,4.6,-,N/A,,Overcast,120,2013-05-21 09:53:00
4:53 AM,45.0,35.1,68,30.02,10.0,Calm,Calm,-,N/A,,Mostly Cloudy,0,2013-05-21 10:53:00
5:53 AM,45.0,35.1,68,30.03,10.0,SSW,3.5,-,N/A,,Overcast,200,2013-05-21 11:53:00
6:53 AM,45.0,37.0,74,30.04,10.0,WSW,5.8,-,N/A,,Overcast,240,2013-05-21 12:53:00
7:53 AM,46.0,39.9,79,30.03,9.0,East,3.5,-,N/A,,Overcast,100,2013-05-21 13:53:00
8:53 AM,51.1,37.0,59,30.01,10.0,Calm,Calm,-,N/A,,Partly Cloudy,0,2013-05-21 14:53:00
9:53 AM,54.0,34.0,47,29.99,10.0,Calm,Calm,-,N/A,,Clear,0,2013-05-21 15:53:00
10:53 AM,55.9,35.1,45,29.96,10.0,Calm,Calm,-,N/A,,Clear,0,2013-05-21 16:53:00
11:53 AM,57.0,37.0,47,29.95,10.0,Variable,4.6,-,N/A,,Clear,0,2013-05-21 17:53:00
12:53 PM,60.1,37.9,44,29.92,10.0,Variable,6.9,-,N/A,,Clear,0,2013-05-21 18:53:00
1:53 PM,61.0,37.9,42,29.89,10.0,Variable,6.9,-,N/A,,Clear,0,2013-05-21 19:53:00
2:53 PM,62.1,37.0,39,29.87,10.0,East,4.6,-,N/A,,Clear,100,2013-05-21 20:53:00
3:53 PM,63.0,37.0,38,29.85,10.0,Variable,4.6,-,N/A,,Partly Cloudy,0,2013-05-21 21:53:00
4:53 PM,64.0,36.0,35,29.81,10.0,Calm,Calm,-,N/A,,Mostly Cloudy,0,2013-05-21 22:53:00
5:53 PM,64.0,36.0,35,29.78,10.0,ESE,3.5,-,N/A,,Clear,110,2013-05-21 23:53:00
6:53 PM,62.1,37.0,39,29.78,10.0,NE,9.2,-,N/A,,Clear,50,2013-05-22 00:53:00
7:53 PM,61.0,37.0,41,29.79,10.0,NE,5.8,-,N/A,,Partly Cloudy,40,2013-05-22 01:53:00
8:53 PM,57.0,37.0,47,29.79,10.0,SW,3.5,-,N/A,,Clear,230,2013-05-22 02:53:00
9:53 PM,55.0,39.0,55,29.79,10.0,WSW,11.5,-,N/A,,Mostly Cloudy,240,2013-05-22 03:53:00
10:53 PM,54.0,39.0,57,29.79,10.0,WSW,4.6,-,N/A,,Clear,240,2013-05-22 04:53:00
11:53 PM,53.1,39.0,59,29.78,10.0,Calm,Calm,-,N/A,,Mostly Cloudy,0,2013-05-22 05:53:00